Data supplied by UK-AIR on 21/1/2015
All Data GMT hour ending 
Status: R =Ratified P=Provisional,P*=As supplied
,,Bottesford,,,,,,,,,,,,,,,,,,,,,,,
Date,time,"Ozone",status,unit
 
01-01-2013,01:00,68.58556,R,ugm-3
01-01-2013,02:00,67.12204,R,ugm-3
01-01-2013,03:00,71.14671,R,ugm-3
01-01-2013,04:00,71.94499,R,ugm-3
01-01-2013,05:00,67.45466,R,ugm-3
01-01-2013,06:00,64.26154,R,ugm-3
01-01-2013,07:00,67.15531,R,ugm-3
01-01-2013,08:00,65.60864,R,ugm-3
01-01-2013,09:00,70.14886,R,ugm-3
01-01-2013,10:00,68.65208,R,ugm-3
01-01-2013,11:00,73.59144,R,ugm-3
01-01-2013,12:00,75.83660,R,ugm-3
01-01-2013,13:00,73.14241,R,ugm-3
01-01-2013,14:00,72.19445,R,ugm-3
01-01-2013,15:00,72.24434,R,ugm-3
01-01-2013,16:00,70.29853,R,ugm-3
01-01-2013,17:00,68.50240,R,ugm-3
01-01-2013,18:00,67.10541,R,ugm-3
01-01-2013,19:00,61.56735,R,ugm-3
01-01-2013,20:00,58.82326,R,ugm-3
01-01-2013,21:00,58.52390,R,ugm-3
01-01-2013,22:00,57.92519,R,ugm-3
01-01-2013,23:00,55.68003,R,ugm-3
01-01-2013,24:00,53.18541,R,ugm-3
02-01-2013,01:00,53.41824,R,ugm-3
02-01-2013,02:00,52.61996,R,ugm-3
02-01-2013,03:00,52.98584,R,ugm-3
02-01-2013,04:00,51.73852,R,ugm-3
02-01-2013,05:00,51.93809,R,ugm-3
02-01-2013,06:00,53.63444,R,ugm-3
02-01-2013,07:00,52.23745,R,ugm-3
02-01-2013,08:00,48.54540,R,ugm-3
02-01-2013,09:00,48.44562,R,ugm-3
02-01-2013,10:00,37.81852,R,ugm-3
02-01-2013,11:00,33.47787,R,ugm-3
02-01-2013,12:00,37.66884,R,ugm-3
02-01-2013,13:00,59.92089,R,ugm-3
02-01-2013,14:00,55.43057,R,ugm-3
02-01-2013,15:00,48.64519,R,ugm-3
02-01-2013,16:00,47.54755,R,ugm-3
02-01-2013,17:00,42.30884,R,ugm-3
02-01-2013,18:00,39.46497,R,ugm-3
02-01-2013,19:00,40.71228,R,ugm-3
02-01-2013,20:00,49.94239,R,ugm-3
02-01-2013,21:00,48.54540,R,ugm-3
02-01-2013,22:00,46.49981,R,ugm-3
02-01-2013,23:00,52.93594,R,ugm-3
02-01-2013,24:00,52.83616,R,ugm-3
03-01-2013,01:00,42.90755,R,ugm-3
03-01-2013,02:00,44.83673,R,ugm-3
03-01-2013,03:00,42.15916,R,ugm-3
03-01-2013,04:00,43.10712,R,ugm-3
03-01-2013,05:00,41.80992,R,ugm-3
03-01-2013,06:00,43.80562,R,ugm-3
03-01-2013,07:00,43.15701,R,ugm-3
03-01-2013,08:00,42.70798,R,ugm-3
03-01-2013,09:00,44.45422,R,ugm-3
03-01-2013,10:00,42.80777,R,ugm-3
03-01-2013,11:00,45.30239,R,ugm-3
03-01-2013,12:00,37.02024,R,ugm-3
03-01-2013,13:00,,,
03-01-2013,14:00,54.68218,R,ugm-3
03-01-2013,15:00,52.63659,R,ugm-3
03-01-2013,16:00,50.44132,R,ugm-3
03-01-2013,17:00,34.67529,R,ugm-3
03-01-2013,18:00,27.79012,R,ugm-3
03-01-2013,19:00,23.89851,R,ugm-3
03-01-2013,20:00,24.19786,R,ugm-3
03-01-2013,21:00,19.90711,R,ugm-3
03-01-2013,22:00,28.83787,R,ugm-3
03-01-2013,23:00,38.41723,R,ugm-3
03-01-2013,24:00,40.31314,R,ugm-3
04-01-2013,01:00,49.02770,R,ugm-3
04-01-2013,02:00,51.35601,R,ugm-3
04-01-2013,03:00,51.83831,R,ugm-3
04-01-2013,04:00,58.07487,R,ugm-3
04-01-2013,05:00,61.46756,R,ugm-3
04-01-2013,06:00,69.99918,R,ugm-3
04-01-2013,07:00,73.69122,R,ugm-3
04-01-2013,08:00,71.49595,R,ugm-3
04-01-2013,09:00,70.04907,R,ugm-3
04-01-2013,10:00,72.79316,R,ugm-3
04-01-2013,11:00,77.08391,R,ugm-3
04-01-2013,12:00,78.33123,R,ugm-3
04-01-2013,13:00,71.54585,R,ugm-3
04-01-2013,14:00,69.60004,R,ugm-3
04-01-2013,15:00,67.10541,R,ugm-3
04-01-2013,16:00,65.65853,R,ugm-3
04-01-2013,17:00,59.17251,R,ugm-3
04-01-2013,18:00,53.73422,R,ugm-3
04-01-2013,19:00,44.05508,R,ugm-3
04-01-2013,20:00,55.23100,R,ugm-3
04-01-2013,21:00,63.06412,R,ugm-3
04-01-2013,22:00,61.96649,R,ugm-3
04-01-2013,23:00,48.39573,R,ugm-3
04-01-2013,24:00,60.27014,R,ugm-3
05-01-2013,01:00,52.28734,R,ugm-3
05-01-2013,02:00,60.20362,R,ugm-3
05-01-2013,03:00,63.11401,R,ugm-3
05-01-2013,04:00,61.36778,R,ugm-3
05-01-2013,05:00,57.92519,R,ugm-3
05-01-2013,06:00,59.57165,R,ugm-3
05-01-2013,07:00,51.18971,R,ugm-3
05-01-2013,08:00,49.44347,R,ugm-3
05-01-2013,09:00,51.68863,R,ugm-3
05-01-2013,10:00,49.29379,R,ugm-3
05-01-2013,11:00,50.24175,R,ugm-3
05-01-2013,12:00,50.84046,R,ugm-3
05-01-2013,13:00,52.83616,R,ugm-3
05-01-2013,14:00,57.27659,R,ugm-3
05-01-2013,15:00,53.68433,R,ugm-3
05-01-2013,16:00,52.73637,R,ugm-3
05-01-2013,17:00,49.14411,R,ugm-3
05-01-2013,18:00,44.00519,R,ugm-3
05-01-2013,19:00,39.91400,R,ugm-3
05-01-2013,20:00,44.95314,R,ugm-3
05-01-2013,21:00,47.19831,R,ugm-3
05-01-2013,22:00,43.95529,R,ugm-3
05-01-2013,23:00,47.14841,R,ugm-3
05-01-2013,24:00,44.00519,R,ugm-3
06-01-2013,01:00,41.57708,R,ugm-3
06-01-2013,02:00,44.30454,R,ugm-3
06-01-2013,03:00,43.60605,R,ugm-3
06-01-2013,04:00,40.96174,R,ugm-3
06-01-2013,05:00,38.71658,R,ugm-3
06-01-2013,06:00,32.92905,R,ugm-3
06-01-2013,07:00,33.92690,R,ugm-3
06-01-2013,08:00,35.72303,R,ugm-3
06-01-2013,09:00,36.07228,R,ugm-3
06-01-2013,10:00,34.92475,R,ugm-3
06-01-2013,11:00,42.50841,R,ugm-3
06-01-2013,12:00,45.00304,R,ugm-3
06-01-2013,13:00,41.51056,R,ugm-3
06-01-2013,14:00,46.79917,R,ugm-3
06-01-2013,15:00,63.56305,R,ugm-3
06-01-2013,16:00,60.41982,R,ugm-3
06-01-2013,17:00,53.53465,R,ugm-3
06-01-2013,18:00,46.69938,R,ugm-3
06-01-2013,19:00,43.00734,R,ugm-3
06-01-2013,20:00,45.00304,R,ugm-3
06-01-2013,21:00,42.70798,R,ugm-3
06-01-2013,22:00,37.66884,R,ugm-3
06-01-2013,23:00,34.27615,R,ugm-3
06-01-2013,24:00,35.52346,R,ugm-3
07-01-2013,01:00,39.58138,R,ugm-3
07-01-2013,02:00,41.77665,R,ugm-3
07-01-2013,03:00,40.21336,R,ugm-3
07-01-2013,04:00,42.30884,R,ugm-3
07-01-2013,05:00,44.05508,R,ugm-3
07-01-2013,06:00,41.11142,R,ugm-3
07-01-2013,07:00,39.01594,R,ugm-3
07-01-2013,08:00,36.17206,R,ugm-3
07-01-2013,09:00,32.43013,R,ugm-3
07-01-2013,10:00,32.77937,R,ugm-3
07-01-2013,11:00,34.87486,R,ugm-3
07-01-2013,12:00,34.27615,R,ugm-3
07-01-2013,13:00,40.76217,R,ugm-3
07-01-2013,14:00,46.40003,R,ugm-3
07-01-2013,15:00,41.61035,R,ugm-3
07-01-2013,16:00,34.32604,R,ugm-3
07-01-2013,17:00,27.04174,R,ugm-3
07-01-2013,18:00,24.04819,R,ugm-3
07-01-2013,19:00,23.00044,R,ugm-3
07-01-2013,20:00,21.75313,R,ugm-3
07-01-2013,21:00,24.44733,R,ugm-3
07-01-2013,22:00,22.95055,R,ugm-3
07-01-2013,23:00,27.54066,R,ugm-3
07-01-2013,24:00,28.28905,R,ugm-3
08-01-2013,01:00,30.86683,R,ugm-3
08-01-2013,02:00,37.58568,R,ugm-3
08-01-2013,03:00,40.56260,R,ugm-3
08-01-2013,04:00,40.96174,R,ugm-3
08-01-2013,05:00,45.10282,R,ugm-3
08-01-2013,06:00,48.19616,R,ugm-3
08-01-2013,07:00,46.15056,R,ugm-3
08-01-2013,08:00,47.54755,R,ugm-3
08-01-2013,09:00,43.05723,R,ugm-3
08-01-2013,10:00,42.10927,R,ugm-3
08-01-2013,11:00,44.10497,R,ugm-3
08-01-2013,12:00,47.39788,R,ugm-3
08-01-2013,13:00,45.85121,R,ugm-3
08-01-2013,14:00,45.30239,R,ugm-3
08-01-2013,15:00,44.45422,R,ugm-3
08-01-2013,16:00,41.80992,R,ugm-3
08-01-2013,17:00,34.27615,R,ugm-3
08-01-2013,18:00,26.04389,R,ugm-3
08-01-2013,19:00,25.89421,R,ugm-3
08-01-2013,20:00,21.75313,R,ugm-3
08-01-2013,21:00,26.09378,R,ugm-3
08-01-2013,22:00,15.26711,R,ugm-3
08-01-2013,23:00,9.52947,R,ugm-3
08-01-2013,24:00,39.31529,R,ugm-3
09-01-2013,01:00,39.51486,R,ugm-3
09-01-2013,02:00,55.08132,R,ugm-3
09-01-2013,03:00,54.18326,R,ugm-3
09-01-2013,04:00,52.38713,R,ugm-3
09-01-2013,05:00,39.76432,R,ugm-3
09-01-2013,06:00,35.72303,R,ugm-3
09-01-2013,07:00,27.29120,R,ugm-3
09-01-2013,08:00,20.45593,R,ugm-3
09-01-2013,09:00,16.66410,R,ugm-3
09-01-2013,10:00,19.40818,R,ugm-3
09-01-2013,11:00,23.79872,R,ugm-3
09-01-2013,12:00,25.69464,R,ugm-3
09-01-2013,13:00,22.15227,R,ugm-3
09-01-2013,14:00,18.41033,R,ugm-3
09-01-2013,15:00,10.92646,R,ugm-3
09-01-2013,16:00,12.47313,R,ugm-3
09-01-2013,17:00,7.18452,R,ugm-3
09-01-2013,18:00,10.57721,R,ugm-3
09-01-2013,19:00,9.77893,R,ugm-3
09-01-2013,20:00,7.28431,R,ugm-3
09-01-2013,21:00,4.34065,R,ugm-3
09-01-2013,22:00,3.64215,R,ugm-3
09-01-2013,23:00,10.02839,R,ugm-3
09-01-2013,24:00,8.73119,R,ugm-3
10-01-2013,01:00,8.84760,R,ugm-3
10-01-2013,02:00,8.91413,R,ugm-3
10-01-2013,03:00,16.76388,R,ugm-3
10-01-2013,04:00,18.21076,R,ugm-3
10-01-2013,05:00,22.15227,R,ugm-3
10-01-2013,06:00,23.44948,R,ugm-3
10-01-2013,07:00,25.29550,R,ugm-3
10-01-2013,08:00,27.93980,R,ugm-3
10-01-2013,09:00,24.59700,R,ugm-3
10-01-2013,10:00,23.69894,R,ugm-3
10-01-2013,11:00,22.40173,R,ugm-3
10-01-2013,12:00,20.45593,R,ugm-3
10-01-2013,13:00,19.50797,R,ugm-3
10-01-2013,14:00,18.21076,R,ugm-3
10-01-2013,15:00,18.46023,R,ugm-3
10-01-2013,16:00,14.31915,R,ugm-3
10-01-2013,17:00,9.28001,R,ugm-3
10-01-2013,18:00,3.64215,R,ugm-3
10-01-2013,19:00,3.04344,R,ugm-3
10-01-2013,20:00,3.09334,R,ugm-3
10-01-2013,21:00,2.99355,R,ugm-3
10-01-2013,22:00,3.04344,R,ugm-3
10-01-2013,23:00,2.99355,R,ugm-3
10-01-2013,24:00,3.34280,R,ugm-3
11-01-2013,01:00,3.59226,R,ugm-3
11-01-2013,02:00,3.52574,R,ugm-3
11-01-2013,03:00,3.44258,R,ugm-3
11-01-2013,04:00,3.34280,R,ugm-3
11-01-2013,05:00,3.24301,R,ugm-3
11-01-2013,06:00,2.99355,R,ugm-3
11-01-2013,07:00,3.04344,R,ugm-3
11-01-2013,08:00,2.99355,R,ugm-3
11-01-2013,09:00,3.94151,R,ugm-3
11-01-2013,10:00,6.73549,R,ugm-3
11-01-2013,11:00,11.57506,R,ugm-3
11-01-2013,12:00,14.86797,R,ugm-3
11-01-2013,13:00,24.24776,R,ugm-3
11-01-2013,14:00,36.57120,R,ugm-3
11-01-2013,15:00,42.15916,R,ugm-3
11-01-2013,16:00,47.99659,R,ugm-3
11-01-2013,17:00,35.37378,R,ugm-3
11-01-2013,18:00,12.72259,R,ugm-3
11-01-2013,19:00,25.44518,R,ugm-3
11-01-2013,20:00,13.42108,R,ugm-3
11-01-2013,21:00,12.02409,R,ugm-3
11-01-2013,22:00,15.81592,R,ugm-3
11-01-2013,23:00,22.20216,R,ugm-3
11-01-2013,24:00,27.93980,R,ugm-3
12-01-2013,01:00,25.27887,R,ugm-3
12-01-2013,02:00,23.61578,R,ugm-3
12-01-2013,03:00,23.99829,R,ugm-3
12-01-2013,04:00,28.93765,R,ugm-3
12-01-2013,05:00,38.16776,R,ugm-3
12-01-2013,06:00,34.42583,R,ugm-3
12-01-2013,07:00,40.16346,R,ugm-3
12-01-2013,08:00,43.15701,R,ugm-3
12-01-2013,09:00,44.60390,R,ugm-3
12-01-2013,10:00,48.44562,R,ugm-3
12-01-2013,11:00,52.78627,R,ugm-3
12-01-2013,12:00,53.48476,R,ugm-3
12-01-2013,13:00,57.67573,R,ugm-3
12-01-2013,14:00,54.53250,R,ugm-3
12-01-2013,15:00,54.68218,R,ugm-3
12-01-2013,16:00,51.58885,R,ugm-3
12-01-2013,17:00,45.70153,R,ugm-3
12-01-2013,18:00,47.34798,R,ugm-3
12-01-2013,19:00,41.31099,R,ugm-3
12-01-2013,20:00,40.91185,R,ugm-3
12-01-2013,21:00,36.27185,R,ugm-3
12-01-2013,22:00,32.52991,R,ugm-3
12-01-2013,23:00,25.39528,R,ugm-3
12-01-2013,24:00,27.24131,R,ugm-3
13-01-2013,01:00,23.01707,R,ugm-3
13-01-2013,02:00,18.09435,R,ugm-3
13-01-2013,03:00,14.66840,R,ugm-3
13-01-2013,04:00,33.42798,R,ugm-3
13-01-2013,05:00,39.96389,R,ugm-3
13-01-2013,06:00,36.67099,R,ugm-3
13-01-2013,07:00,41.01164,R,ugm-3
13-01-2013,08:00,34.32604,R,ugm-3
13-01-2013,09:00,26.94195,R,ugm-3
13-01-2013,10:00,29.38668,R,ugm-3
13-01-2013,11:00,35.77292,R,ugm-3
13-01-2013,12:00,32.08088,R,ugm-3
13-01-2013,13:00,31.88131,R,ugm-3
13-01-2013,14:00,28.83787,R,ugm-3
13-01-2013,15:00,31.73163,R,ugm-3
13-01-2013,16:00,28.58840,R,ugm-3
13-01-2013,17:00,26.94195,R,ugm-3
13-01-2013,18:00,25.69464,R,ugm-3
13-01-2013,19:00,23.00044,R,ugm-3
13-01-2013,20:00,17.36259,R,ugm-3
13-01-2013,21:00,17.06324,R,ugm-3
13-01-2013,22:00,19.30840,R,ugm-3
13-01-2013,23:00,7.83312,R,ugm-3
13-01-2013,24:00,11.67485,R,ugm-3
14-01-2013,01:00,26.27672,R,ugm-3
14-01-2013,02:00,38.05135,R,ugm-3
14-01-2013,03:00,41.80992,R,ugm-3
14-01-2013,04:00,50.59100,R,ugm-3
14-01-2013,05:00,58.32433,R,ugm-3
14-01-2013,06:00,58.87315,R,ugm-3
14-01-2013,07:00,56.07917,R,ugm-3
14-01-2013,08:00,49.24390,R,ugm-3
14-01-2013,09:00,42.75787,R,ugm-3
14-01-2013,10:00,41.41078,R,ugm-3
14-01-2013,11:00,39.01594,R,ugm-3
14-01-2013,12:00,34.52561,R,ugm-3
14-01-2013,13:00,32.33034,R,ugm-3
14-01-2013,14:00,32.28045,R,ugm-3
14-01-2013,15:00,28.53851,R,ugm-3
14-01-2013,16:00,11.87442,R,ugm-3
14-01-2013,17:00,4.14108,R,ugm-3
14-01-2013,18:00,13.07184,R,ugm-3
14-01-2013,19:00,14.56861,R,ugm-3
14-01-2013,20:00,31.93120,R,ugm-3
14-01-2013,21:00,51.08992,R,ugm-3
14-01-2013,22:00,62.41552,R,ugm-3
14-01-2013,23:00,66.25724,R,ugm-3
14-01-2013,24:00,46.64949,R,ugm-3
15-01-2013,01:00,7.31757,R,ugm-3
15-01-2013,02:00,22.55141,R,ugm-3
15-01-2013,03:00,30.73378,R,ugm-3
15-01-2013,04:00,30.78367,R,ugm-3
15-01-2013,05:00,30.38453,R,ugm-3
15-01-2013,06:00,23.74883,R,ugm-3
15-01-2013,07:00,20.15657,R,ugm-3
15-01-2013,08:00,17.91141,R,ugm-3
15-01-2013,09:00,14.66840,R,ugm-3
15-01-2013,10:00,20.05679,R,ugm-3
15-01-2013,11:00,23.24991,R,ugm-3
15-01-2013,12:00,27.84002,R,ugm-3
15-01-2013,13:00,23.74883,R,ugm-3
15-01-2013,14:00,28.88776,R,ugm-3
15-01-2013,15:00,25.14582,R,ugm-3
15-01-2013,16:00,11.32560,R,ugm-3
15-01-2013,17:00,9.28001,R,ugm-3
15-01-2013,18:00,3.04344,R,ugm-3
15-01-2013,19:00,3.19312,R,ugm-3
15-01-2013,20:00,3.39269,R,ugm-3
15-01-2013,21:00,3.64215,R,ugm-3
15-01-2013,22:00,3.59226,R,ugm-3
15-01-2013,23:00,5.38839,R,ugm-3
15-01-2013,24:00,10.07829,R,ugm-3
16-01-2013,01:00,9.97850,R,ugm-3
16-01-2013,02:00,13.96990,R,ugm-3
16-01-2013,03:00,19.15872,R,ugm-3
16-01-2013,04:00,21.95270,R,ugm-3
16-01-2013,05:00,21.80302,R,ugm-3
16-01-2013,06:00,19.20861,R,ugm-3
16-01-2013,07:00,13.52087,R,ugm-3
16-01-2013,08:00,7.58366,R,ugm-3
16-01-2013,09:00,11.82452,R,ugm-3
16-01-2013,10:00,21.95270,R,ugm-3
16-01-2013,11:00,22.50152,R,ugm-3
16-01-2013,12:00,22.45163,R,ugm-3
16-01-2013,13:00,20.40603,R,ugm-3
16-01-2013,14:00,18.75958,R,ugm-3
16-01-2013,15:00,18.85937,R,ugm-3
16-01-2013,16:00,17.61205,R,ugm-3
16-01-2013,17:00,15.16732,R,ugm-3
16-01-2013,18:00,4.88947,R,ugm-3
16-01-2013,19:00,5.13893,R,ugm-3
16-01-2013,20:00,5.63785,R,ugm-3
16-01-2013,21:00,3.84172,R,ugm-3
16-01-2013,22:00,5.63785,R,ugm-3
16-01-2013,23:00,4.98925,R,ugm-3
16-01-2013,24:00,3.54237,R,ugm-3
17-01-2013,01:00,3.85835,R,ugm-3
17-01-2013,02:00,3.65878,R,ugm-3
17-01-2013,03:00,3.29291,R,ugm-3
17-01-2013,04:00,3.39269,R,ugm-3
17-01-2013,05:00,3.29291,R,ugm-3
17-01-2013,06:00,3.34280,R,ugm-3
17-01-2013,07:00,3.29291,R,ugm-3
17-01-2013,08:00,3.24301,R,ugm-3
17-01-2013,09:00,3.94151,R,ugm-3
17-01-2013,10:00,5.43828,R,ugm-3
17-01-2013,11:00,29.33679,R,ugm-3
17-01-2013,12:00,25.39528,R,ugm-3
17-01-2013,13:00,40.01379,R,ugm-3
17-01-2013,14:00,40.31314,R,ugm-3
17-01-2013,15:00,31.13292,R,ugm-3
17-01-2013,16:00,14.16947,R,ugm-3
17-01-2013,17:00,32.87916,R,ugm-3
17-01-2013,18:00,32.18066,R,ugm-3
17-01-2013,19:00,12.42323,R,ugm-3
17-01-2013,20:00,12.52302,R,ugm-3
17-01-2013,21:00,18.06109,R,ugm-3
17-01-2013,22:00,5.78753,R,ugm-3
17-01-2013,23:00,15.76603,R,ugm-3
17-01-2013,24:00,27.59055,R,ugm-3
18-01-2013,01:00,28.40546,R,ugm-3
18-01-2013,02:00,25.07930,R,ugm-3
18-01-2013,03:00,24.39743,R,ugm-3
18-01-2013,04:00,25.19571,R,ugm-3
18-01-2013,05:00,22.30195,R,ugm-3
18-01-2013,06:00,23.54926,R,ugm-3
18-01-2013,07:00,25.34539,R,ugm-3
18-01-2013,08:00,25.29550,R,ugm-3
18-01-2013,09:00,22.10238,R,ugm-3
18-01-2013,10:00,35.97249,R,ugm-3
18-01-2013,11:00,,,
18-01-2013,12:00,,,
18-01-2013,13:00,44.30454,R,ugm-3
18-01-2013,14:00,44.55400,R,ugm-3
18-01-2013,15:00,42.85766,R,ugm-3
18-01-2013,16:00,34.77507,R,ugm-3
18-01-2013,17:00,37.46927,R,ugm-3
18-01-2013,18:00,45.10282,R,ugm-3
18-01-2013,19:00,45.15271,R,ugm-3
18-01-2013,20:00,44.35443,R,ugm-3
18-01-2013,21:00,35.72303,R,ugm-3
18-01-2013,22:00,31.03314,R,ugm-3
18-01-2013,23:00,39.41508,R,ugm-3
18-01-2013,24:00,44.20476,R,ugm-3
19-01-2013,01:00,45.50196,R,ugm-3
19-01-2013,02:00,34.92475,R,ugm-3
19-01-2013,03:00,38.56690,R,ugm-3
19-01-2013,04:00,41.66024,R,ugm-3
19-01-2013,05:00,46.30024,R,ugm-3
19-01-2013,06:00,51.43917,R,ugm-3
19-01-2013,07:00,52.48691,R,ugm-3
19-01-2013,08:00,51.18971,R,ugm-3
19-01-2013,09:00,43.65594,R,ugm-3
19-01-2013,10:00,48.29594,R,ugm-3
19-01-2013,11:00,52.43702,R,ugm-3
19-01-2013,12:00,56.07917,R,ugm-3
19-01-2013,13:00,57.07702,R,ugm-3
19-01-2013,14:00,56.42842,R,ugm-3
19-01-2013,15:00,55.63014,R,ugm-3
19-01-2013,16:00,60.12046,R,ugm-3
19-01-2013,17:00,63.46326,R,ugm-3
19-01-2013,18:00,66.70627,R,ugm-3
19-01-2013,19:00,66.55660,R,ugm-3
19-01-2013,20:00,60.71917,R,ugm-3
19-01-2013,21:00,76.88434,R,ugm-3
19-01-2013,22:00,80.07746,R,ugm-3
19-01-2013,23:00,79.47875,R,ugm-3
19-01-2013,24:00,77.23359,R,ugm-3
20-01-2013,01:00,75.70355,R,ugm-3
20-01-2013,02:00,75.17137,R,ugm-3
20-01-2013,03:00,73.44176,R,ugm-3
20-01-2013,04:00,79.47875,R,ugm-3
20-01-2013,05:00,80.42671,R,ugm-3
20-01-2013,06:00,80.67617,R,ugm-3
20-01-2013,07:00,81.02542,R,ugm-3
20-01-2013,08:00,78.78026,R,ugm-3
20-01-2013,09:00,78.88004,R,ugm-3
20-01-2013,10:00,78.03187,R,ugm-3
20-01-2013,11:00,77.73252,R,ugm-3
20-01-2013,12:00,79.27918,R,ugm-3
20-01-2013,13:00,78.88004,R,ugm-3
20-01-2013,14:00,80.12736,R,ugm-3
20-01-2013,15:00,81.77381,R,ugm-3
20-01-2013,16:00,80.52650,R,ugm-3
20-01-2013,17:00,83.12091,R,ugm-3
20-01-2013,18:00,83.42026,R,ugm-3
20-01-2013,19:00,80.17725,R,ugm-3
20-01-2013,20:00,76.93424,R,ugm-3
20-01-2013,21:00,75.23789,R,ugm-3
20-01-2013,22:00,72.64348,R,ugm-3
20-01-2013,23:00,69.25079,R,ugm-3
20-01-2013,24:00,66.65638,R,ugm-3
21-01-2013,01:00,65.12634,R,ugm-3
21-01-2013,02:00,62.26584,R,ugm-3
21-01-2013,03:00,58.47401,R,ugm-3
21-01-2013,04:00,49.24390,R,ugm-3
21-01-2013,05:00,43.30669,R,ugm-3
21-01-2013,06:00,40.61250,R,ugm-3
21-01-2013,07:00,28.68819,R,ugm-3
21-01-2013,08:00,17.81162,R,ugm-3
21-01-2013,09:00,24.44733,R,ugm-3
21-01-2013,10:00,36.32174,R,ugm-3
21-01-2013,11:00,36.32174,R,ugm-3
21-01-2013,12:00,37.61895,R,ugm-3
21-01-2013,13:00,41.11142,R,ugm-3
21-01-2013,14:00,42.65809,R,ugm-3
21-01-2013,15:00,43.05723,R,ugm-3
21-01-2013,16:00,35.72303,R,ugm-3
21-01-2013,17:00,23.69894,R,ugm-3
21-01-2013,18:00,16.11528,R,ugm-3
21-01-2013,19:00,23.94840,R,ugm-3
21-01-2013,20:00,32.13077,R,ugm-3
21-01-2013,21:00,22.65120,R,ugm-3
21-01-2013,22:00,17.91141,R,ugm-3
21-01-2013,23:00,13.57076,R,ugm-3
21-01-2013,24:00,6.28646,R,ugm-3
22-01-2013,01:00,5.32187,R,ugm-3
22-01-2013,02:00,5.25534,R,ugm-3
22-01-2013,03:00,4.88947,R,ugm-3
22-01-2013,04:00,4.64000,R,ugm-3
22-01-2013,05:00,5.93721,R,ugm-3
22-01-2013,06:00,8.08259,R,ugm-3
22-01-2013,07:00,5.53807,R,ugm-3
22-01-2013,08:00,4.78968,R,ugm-3
22-01-2013,09:00,8.63140,R,ugm-3
22-01-2013,10:00,16.86367,R,ugm-3
22-01-2013,11:00,26.39313,R,ugm-3
22-01-2013,12:00,32.72948,R,ugm-3
22-01-2013,13:00,37.07013,R,ugm-3
22-01-2013,14:00,21.25421,R,ugm-3
22-01-2013,15:00,17.41248,R,ugm-3
22-01-2013,16:00,17.36259,R,ugm-3
22-01-2013,17:00,30.58410,R,ugm-3
22-01-2013,18:00,11.52517,R,ugm-3
22-01-2013,19:00,13.62065,R,ugm-3
22-01-2013,20:00,18.65980,R,ugm-3
22-01-2013,21:00,25.89421,R,ugm-3
22-01-2013,22:00,39.06583,R,ugm-3
22-01-2013,23:00,44.45422,R,ugm-3
22-01-2013,24:00,51.68863,R,ugm-3
23-01-2013,01:00,53.28519,R,ugm-3
23-01-2013,02:00,54.14999,R,ugm-3
23-01-2013,03:00,57.72562,R,ugm-3
23-01-2013,04:00,53.63444,R,ugm-3
23-01-2013,05:00,50.59100,R,ugm-3
23-01-2013,06:00,44.35443,R,ugm-3
23-01-2013,07:00,30.38453,R,ugm-3
23-01-2013,08:00,26.79227,R,ugm-3
23-01-2013,09:00,22.20216,R,ugm-3
23-01-2013,10:00,19.95700,R,ugm-3
23-01-2013,11:00,22.95055,R,ugm-3
23-01-2013,12:00,35.12432,R,ugm-3
23-01-2013,13:00,46.49981,R,ugm-3
23-01-2013,14:00,53.83401,R,ugm-3
23-01-2013,15:00,51.83831,R,ugm-3
23-01-2013,16:00,44.20476,R,ugm-3
23-01-2013,17:00,38.76647,R,ugm-3
23-01-2013,18:00,26.09378,R,ugm-3
23-01-2013,19:00,21.65335,R,ugm-3
23-01-2013,20:00,29.43658,R,ugm-3
23-01-2013,21:00,27.14152,R,ugm-3
23-01-2013,22:00,28.08948,R,ugm-3
23-01-2013,23:00,21.80302,R,ugm-3
23-01-2013,24:00,21.95270,R,ugm-3
24-01-2013,01:00,24.87973,R,ugm-3
24-01-2013,02:00,27.14152,R,ugm-3
24-01-2013,03:00,33.47787,R,ugm-3
24-01-2013,04:00,34.17636,R,ugm-3
24-01-2013,05:00,33.97679,R,ugm-3
24-01-2013,06:00,29.33679,R,ugm-3
24-01-2013,07:00,22.30195,R,ugm-3
24-01-2013,08:00,18.80947,R,ugm-3
24-01-2013,09:00,14.51872,R,ugm-3
24-01-2013,10:00,19.40818,R,ugm-3
24-01-2013,11:00,18.90926,R,ugm-3
24-01-2013,12:00,23.15012,R,ugm-3
24-01-2013,13:00,24.19786,R,ugm-3
24-01-2013,14:00,29.83572,R,ugm-3
24-01-2013,15:00,37.02024,R,ugm-3
24-01-2013,16:00,19.15872,R,ugm-3
24-01-2013,17:00,8.28216,R,ugm-3
24-01-2013,18:00,7.08474,R,ugm-3
24-01-2013,19:00,7.93291,R,ugm-3
24-01-2013,20:00,15.61635,R,ugm-3
24-01-2013,21:00,24.99614,R,ugm-3
24-01-2013,22:00,28.08948,R,ugm-3
24-01-2013,23:00,34.22626,R,ugm-3
24-01-2013,24:00,46.74927,R,ugm-3
25-01-2013,01:00,44.70368,R,ugm-3
25-01-2013,02:00,35.12432,R,ugm-3
25-01-2013,03:00,35.27400,R,ugm-3
25-01-2013,04:00,34.97464,R,ugm-3
25-01-2013,05:00,33.47787,R,ugm-3
25-01-2013,06:00,32.13077,R,ugm-3
25-01-2013,07:00,37.07013,R,ugm-3
25-01-2013,08:00,45.55185,R,ugm-3
25-01-2013,09:00,48.04648,R,ugm-3
25-01-2013,10:00,54.28304,R,ugm-3
25-01-2013,11:00,53.83401,R,ugm-3
25-01-2013,12:00,47.49766,R,ugm-3
25-01-2013,13:00,50.24175,R,ugm-3
25-01-2013,14:00,54.68218,R,ugm-3
25-01-2013,15:00,63.66283,R,ugm-3
25-01-2013,16:00,47.24820,R,ugm-3
25-01-2013,17:00,35.72303,R,ugm-3
25-01-2013,18:00,34.17636,R,ugm-3
25-01-2013,19:00,42.50841,R,ugm-3
25-01-2013,20:00,47.39788,R,ugm-3
25-01-2013,21:00,42.65809,R,ugm-3
25-01-2013,22:00,39.21551,R,ugm-3
25-01-2013,23:00,36.77077,R,ugm-3
25-01-2013,24:00,34.67529,R,ugm-3
26-01-2013,01:00,34.92475,R,ugm-3
26-01-2013,02:00,35.25737,R,ugm-3
26-01-2013,03:00,34.32604,R,ugm-3
26-01-2013,04:00,37.12002,R,ugm-3
26-01-2013,05:00,42.40863,R,ugm-3
26-01-2013,06:00,47.94669,R,ugm-3
26-01-2013,07:00,43.55615,R,ugm-3
26-01-2013,08:00,53.53465,R,ugm-3
26-01-2013,09:00,55.18111,R,ugm-3
26-01-2013,10:00,62.96434,R,ugm-3
26-01-2013,11:00,66.75617,R,ugm-3
26-01-2013,12:00,68.25294,R,ugm-3
26-01-2013,13:00,68.55230,R,ugm-3
26-01-2013,14:00,67.95359,R,ugm-3
26-01-2013,15:00,65.70842,R,ugm-3
26-01-2013,16:00,68.55230,R,ugm-3
26-01-2013,17:00,66.55660,R,ugm-3
26-01-2013,18:00,62.81466,R,ugm-3
26-01-2013,19:00,65.30928,R,ugm-3
26-01-2013,20:00,68.30283,R,ugm-3
26-01-2013,21:00,75.18800,R,ugm-3
26-01-2013,22:00,78.28133,R,ugm-3
26-01-2013,23:00,79.47875,R,ugm-3
26-01-2013,24:00,82.52220,R,ugm-3
27-01-2013,01:00,81.42456,R,ugm-3
27-01-2013,02:00,80.16062,R,ugm-3
27-01-2013,03:00,79.77811,R,ugm-3
27-01-2013,04:00,79.42886,R,ugm-3
27-01-2013,05:00,77.13381,R,ugm-3
27-01-2013,06:00,74.78886,R,ugm-3
27-01-2013,07:00,84.11876,R,ugm-3
27-01-2013,08:00,90.00607,R,ugm-3
27-01-2013,09:00,89.50715,R,ugm-3
27-01-2013,10:00,92.20134,R,ugm-3
27-01-2013,11:00,90.05596,R,ugm-3
27-01-2013,12:00,86.36392,R,ugm-3
27-01-2013,13:00,87.26198,R,ugm-3
27-01-2013,14:00,86.11446,R,ugm-3
27-01-2013,15:00,82.27273,R,ugm-3
27-01-2013,16:00,78.88004,R,ugm-3
27-01-2013,17:00,78.68047,R,ugm-3
27-01-2013,18:00,74.58929,R,ugm-3
27-01-2013,19:00,73.64133,R,ugm-3
27-01-2013,20:00,75.33768,R,ugm-3
27-01-2013,21:00,73.49165,R,ugm-3
27-01-2013,22:00,72.69337,R,ugm-3
27-01-2013,23:00,72.54370,R,ugm-3
27-01-2013,24:00,72.04477,R,ugm-3
28-01-2013,01:00,73.30871,R,ugm-3
28-01-2013,02:00,70.84735,R,ugm-3
28-01-2013,03:00,73.49165,R,ugm-3
28-01-2013,04:00,74.28993,R,ugm-3
28-01-2013,05:00,71.54585,R,ugm-3
28-01-2013,06:00,71.24649,R,ugm-3
28-01-2013,07:00,71.19660,R,ugm-3
28-01-2013,08:00,66.65638,R,ugm-3
28-01-2013,09:00,68.50240,R,ugm-3
28-01-2013,10:00,63.01423,R,ugm-3
28-01-2013,11:00,63.41337,R,ugm-3
28-01-2013,12:00,64.46111,R,ugm-3
28-01-2013,13:00,68.55230,R,ugm-3
28-01-2013,14:00,72.59359,R,ugm-3
28-01-2013,15:00,76.23574,R,ugm-3
28-01-2013,16:00,78.23144,R,ugm-3
28-01-2013,17:00,78.53080,R,ugm-3
28-01-2013,18:00,79.97768,R,ugm-3
28-01-2013,19:00,79.52865,R,ugm-3
28-01-2013,20:00,79.17940,R,ugm-3
28-01-2013,21:00,79.92779,R,ugm-3
28-01-2013,22:00,79.12951,R,ugm-3
28-01-2013,23:00,81.82370,R,ugm-3
28-01-2013,24:00,83.17080,R,ugm-3
29-01-2013,01:00,81.89022,R,ugm-3
29-01-2013,02:00,81.22499,R,ugm-3
29-01-2013,03:00,80.52650,R,ugm-3
29-01-2013,04:00,79.52865,R,ugm-3
29-01-2013,05:00,77.33338,R,ugm-3
29-01-2013,06:00,75.18800,R,ugm-3
29-01-2013,07:00,71.39617,R,ugm-3
29-01-2013,08:00,68.05337,R,ugm-3
29-01-2013,09:00,61.76692,R,ugm-3
29-01-2013,10:00,59.47186,R,ugm-3
29-01-2013,11:00,68.30283,R,ugm-3
29-01-2013,12:00,67.15531,R,ugm-3
29-01-2013,13:00,57.17681,R,ugm-3
29-01-2013,14:00,50.89035,R,ugm-3
29-01-2013,15:00,52.68648,R,ugm-3
29-01-2013,16:00,53.73422,R,ugm-3
29-01-2013,17:00,55.33078,R,ugm-3
29-01-2013,18:00,55.23100,R,ugm-3
29-01-2013,19:00,57.87530,R,ugm-3
29-01-2013,20:00,57.42627,R,ugm-3
29-01-2013,21:00,57.72562,R,ugm-3
29-01-2013,22:00,58.02498,R,ugm-3
29-01-2013,23:00,74.88864,R,ugm-3
29-01-2013,24:00,80.02757,R,ugm-3
30-01-2013,01:00,83.28721,R,ugm-3
30-01-2013,02:00,84.61768,R,ugm-3
30-01-2013,03:00,90.20564,R,ugm-3
30-01-2013,04:00,90.50500,R,ugm-3
30-01-2013,05:00,88.20994,R,ugm-3
30-01-2013,06:00,90.05596,R,ugm-3
30-01-2013,07:00,87.51145,R,ugm-3